Powrót do katalogu

SL-12 R/B(2)

AktywnyMEO
NORAD 20028·ROCKET BODY·🇷🇺 Russia

Wystrzelony May 31, 1989 z Baikonur Cosmodrome

Loading…

Następne Przeloty (najbliższe 24 godziny)

TLE

ŚwieżeSource: Space-Track

Epoka: Sep 14, 2026, 02:15 UTC

1 20028U 89039E   26257.09439706 -.00000044  00000-0  00000-0 0  9990
2 20028  64.8406 306.0770 0008282 280.2578  84.3018  2.13485255276236

Śledź SL-12 R/B(2) w czasie rzeczywistym z AllMySat

Download on the App Store